GALAXY 31 (G-31)

Last updated on Thu Sep 10 2026 00:03:01 GMT+0000 (Coordinated Universal Time)

1 54243U 22153A 26252.56165487 -.00000008 00000+0 00000+0 0 9997 2 54243 0.0109 146.4020 0001223 26.7180 256.6858 1.00271333 7972
UTC large
Height (km)
Speed (km/s)
/
Latitude / Longitude
Inclination (degrees)
Orbital Period (minutes)
Azimuth
Elevation
Range (km)
Doppler Factor

Next 0 passes for location: London (51.5072 / 0.1276)

No passes found over London.
GALAXY 31 (G-31)